KAZMOHAV2 Weather Reports


time (UTC)temp
C
wind
direction
speed
KPH
gust
KPH
rain 1hr
cm
rain 24hr
cm
rain mn
cm
humidity
%
barometer
mb
20260507020109 31 0 0.0 0.0 0.00 0.00 0.00 16 1009.7
20260507014618 32 0 0.0 0.0 0.00 0.00 0.00 15 1009.8
20260507013051 32 0 0.0 0.0 0.00 0.00 0.00 15 1009.8
20260507011559 32 0 0.0 0.0 0.00 0.00 0.00 15 1009.9
20260507010054 32 0 0.0 0.0 0.00 0.00 0.00 16 1009.8
20260507004555 32 0 0.0 0.0 0.00 0.00 0.00 15 1010.0
20260507003055 32 0 0.0 0.0 0.00 0.00 0.00 16 1010.0
20260507001601 32 0 0.0 0.0 0.00 0.00 0.00 15 1010.0
20260507000123 32 0 0.0 0.0 0.00 0.00 0.00 15 1010.1
20260506234610 31 0 0.0 0.0 0.00 0.00 0.00 16 1010.2
20260506233052 31 0 0.0 0.0 0.00 0.00 0.00 16 1010.3
20260506231555 31 0 0.0 0.0 0.00 0.00 0.00 17 1010.7
20260506224551 30 0 0.0 0.0 0.00 0.00 0.00 17 1010.8
20260506223050 30 0 0.0 0.0 0.00 0.00 0.00 18 1011.1
20260506221602 30 0 0.0 0.0 0.00 0.00 0.00 18 1011.2
20260506220052 30 0 0.0 0.0 0.00 0.00 0.00 18 1011.5
20260506214559 30 0 0.0 0.0 0.00 0.00 0.00 17 1011.9
20260506213055 30 0 0.0 0.0 0.00 0.00 0.00 17 1012.2
20260506211554 30 0 0.0 0.0 0.00 0.00 0.00 17 1012.4
20260506210050 30 0 0.0 0.0 0.00 0.00 0.00 18 1012.4
20260506204550 30 0 0.0 0.0 0.00 0.00 0.00 17 1012.7
20260506203048 30 0 0.0 0.0 0.00 0.00 0.00 16 1012.9
20260506201553 29 0 0.0 0.0 0.00 0.00 0.00 18 1013.1
20260506200051 28 0 0.0 0.0 0.00 0.00 0.00 19 1013.3
20260506194554 28 0 0.0 0.0 0.00 0.00 0.00 19 1013.5
20260506193055 28 0 0.0 0.0 0.00 0.00 0.00 19 1013.7
20260506191600 27 0 0.0 0.0 0.00 0.00 0.00 20 1013.8
20260506190053 27 0 0.0 0.0 0.00 0.00 0.00 21 1014.0
20260506184556 27 0 0.0 0.0 0.00 0.00 0.00 21 1014.3
20260506183101 27 0 0.0 0.0 0.00 0.00 0.00 22 1014.4
20260506181605 27 0 0.0 0.0 0.00 0.00 0.00 23 1014.7
20260506180055 26 0 0.0 0.0 0.00 0.00 0.00 24 1014.7
20260506174553 25 0 0.0 0.0 0.00 0.00 0.00 25 1014.8
20260506173119 25 0 0.0 0.0 0.00 0.00 0.00 25 1014.9
20260506171552 24 0 0.0 0.0 0.00 0.00 0.00 26 1014.9
20260506170104 24 0 0.0 0.0 0.00 0.00 0.00 26 1014.9
20260506164548 23 0 0.0 0.0 0.00 0.00 0.00 27 1015.0
20260506163056 23 0 0.0 0.0 0.00 0.00 0.00 29 1015.0
20260506161548 22 0 0.0 0.0 0.00 0.00 0.00 29 1015.0
20260506160053 22 0 0.0 0.0 0.00 0.00 0.00 31 1015.0
20260506154609 21 0 0.0 0.0 0.00 0.00 0.00 33 1015.0
20260506153047 21 0 0.0 0.0 0.00 0.00 0.00 32 1014.9
20260506151554 20 0 0.0 0.0 0.00 0.00 0.00 33 1014.7
20260506150054 20 0 0.0 0.0 0.00 0.00 0.00 36 1014.7
20260506144553 18 0 0.0 0.0 0.00 0.00 0.00 38 1014.6
20260506143053 18 0 0.0 0.0 0.00 0.00 0.00 38 1014.6
20260506141551 18 0 0.0 0.0 0.00 0.00 0.00 37 1014.6
20260506140053 17 0 0.0 0.0 0.00 0.00 0.00 38 1014.4
20260506134550 17 0 0.0 0.0 0.00 0.00 0.00 40 1014.2
20260506133105 16 0 0.0 0.0 0.00 0.00 0.00 41 1013.9
20260506131547 16 0 0.0 0.0 0.00 0.00 0.00 42 1013.8
20260506130052 16 0 0.0 0.0 0.00 0.00 0.00 42 1013.6
20260506124548 16 0 0.0 0.0 0.00 0.00 0.00 42 1013.4
20260506123049 16 0 0.0 0.0 0.00 0.00 0.00 41 1013.4
20260506121550 16 0 0.0 0.0 0.00 0.00 0.00 40 1013.3
20260506120052 16 0 0.0 0.0 0.00 0.00 0.00 40 1013.3
20260506114551 16 0 0.0 0.0 0.00 0.00 0.00 41 1013.0
20260506113048 16 0 0.0 0.0 0.00 0.00 0.00 42 1012.9
20260506111551 16 0 0.0 0.0 0.00 0.00 0.00 41 1012.8
20260506110052 16 0 0.0 0.0 0.00 0.00 0.00 40 1012.6
20260506104609 17 0 0.0 0.0 0.00 0.00 0.00 41 1012.7
20260506103050 17 0 0.0 0.0 0.00 0.00 0.00 40 1012.4
20260506101552 17 0 0.0 0.0 0.00 0.00 0.00 37 1012.3
20260506100050 17 0 0.0 0.0 0.00 0.00 0.00 38 1012.2
20260506094547 18 0 0.0 0.0 0.00 0.00 0.00 38 1012.2
20260506093049 18 0 0.0 0.0 0.00 0.00 0.00 36 1011.9
20260506091548 18 0 0.0 0.0 0.00 0.00 0.00 35 1011.9
20260506090052 19 0 0.0 0.0 0.00 0.00 0.00 34 1011.8
20260506084550 18 0 0.0 0.0 0.00 0.00 0.00 37 1011.8
20260506083049 18 0 0.0 0.0 0.00 0.00 0.00 38 1011.9
20260506081557 18 0 0.0 0.0 0.00 0.00 0.00 41 1011.8
20260506073051 19 0 0.0 0.0 0.00 0.00 0.00 33 1011.7
20260506071554 20 0 0.0 0.0 0.00 0.00 0.00 31 1011.5
20260506061548 21 0 0.0 0.0 0.00 0.00 0.00 30 1010.8
20260506044608 22 0 0.0 0.0 0.00 0.00 0.00 25 1010.0
20260506043057 23 0 0.0 0.0 0.00 0.00 0.00 23 1009.7
20260506041555 23 0 0.0 0.0 0.00 0.00 0.00 23 1009.4
20260506040059 23 0 0.0 0.0 0.00 0.00 0.00 23 1009.3
20260506034554 23 0 0.0 0.0 0.00 0.00 0.00 23 1009.2
20260506033056 23 0 0.0 0.0 0.00 0.00 0.00 22 1009.0
20260506031555 23 0 0.0 0.0 0.00 0.00 0.00 22 1008.7
20260506030053 24 0 0.0 0.0 0.00 0.00 0.00 22 1008.6
20260506024554 24 0 0.0 0.0 0.00 0.00 0.00 21 1008.3
20260506023054 24 0 0.0 0.0 0.00 0.00 0.00 21 1008.1
20260506021557 25 0 0.0 0.0 0.00 0.00 0.00 21 1007.9